K3RTA Weather Reports


time (UTC)temp
C
wind
direction
speed
KPH
gust
KPH
rain 1hr
cm
rain 24hr
cm
rain mn
cm
humidity
%
barometer
mb
20260507010005 19 297 0.0 0.0 0.00 0.10 0.10 82 1007.2
20260507005006 19 246 0.0 0.0 0.00 0.10 0.10 82 1007.2
20260507003005 19 222 0.0 0.0 0.00 0.10 0.10 82 1007.2
20260507002006 19 196 0.0 0.0 0.00 0.10 0.10 82 1007.3
20260507001006 19 212 0.0 1.6 0.00 0.10 0.10 81 1006.7
20260507000006 20 229 0.0 1.6 0.00 0.10 0.10 80 1006.5
20260506233006 20 241 0.0 0.0 0.00 0.10 0.10 79 1006.4
20260506232005 20 222 0.0 0.0 0.00 0.10 0.10 79 1006.6
20260506231005 20 197 0.0 0.0 0.00 0.10 0.10 78 1006.5
20260506230005 20 229 0.0 0.0 0.00 0.10 0.10 78 1006.4
20260506225005 20 247 0.0 3.2 0.00 0.10 0.10 77 1006.5
20260506224005 20 270 0.0 3.2 0.00 0.10 0.10 77 1006.5
20260506223005 21 253 0.0 4.8 0.00 0.10 0.10 76 1006.5
20260506222006 21 289 0.0 12.9 0.00 0.10 0.10 76 1006.5
20260506221006 21 301 0.0 1.6 0.00 0.10 0.10 76 1006.5
20260506220005 21 251 0.0 3.2 0.00 0.10 0.10 76 1006.3
20260506215006 21 221 0.0 1.6 0.00 0.10 0.10 75 1006.4
20260506213005 21 252 0.0 1.6 0.00 0.10 0.10 75 1006.2
20260506212005 21 193 0.0 4.8 0.00 0.10 0.10 75 1006.2
20260506210005 21 237 1.6 9.7 0.00 0.10 0.10 75 1006.1
20260506205005 21 249 0.0 1.6 0.00 0.10 0.10 75 1006.0
20260506204005 20 256 1.6 19.3 0.00 0.10 0.10 76 1006.1
20260506203005 20 285 0.0 8.0 0.00 0.10 0.10 75 1006.0
20260506202005 20 215 1.6 12.9 0.00 0.10 0.10 76 1005.9
20260506201005 20 227 1.6 8.0 0.00 0.10 0.10 76 1005.9
20260506200005 20 255 0.0 11.3 0.00 0.10 0.10 78 1005.9
20260506195005 20 244 0.0 9.7 0.00 0.10 0.10 78 1006.0
20260506194006 19 258 0.0 11.3 0.00 0.10 0.10 80 1006.2
20260506193006 19 260 0.0 16.1 0.00 0.10 0.10 80 1006.3
20260506192005 18 225 1.6 12.9 0.00 0.10 0.10 80 1006.4
20260506190006 18 236 0.0 16.1 0.00 0.10 0.10 81 1006.6
20260506185005 18 218 0.0 11.3 0.00 0.10 0.10 81 1006.6
20260506184005 18 235 0.0 19.3 0.00 0.10 0.10 81 1006.7
20260506183006 18 203 1.6 24.1 0.00 0.10 0.10 81 1006.9
20260506182005 18 215 0.0 19.3 0.00 0.10 0.10 81 1006.9
20260506180006 18 233 1.6 16.1 0.00 0.10 0.10 81 1007.1
20260506175006 18 267 0.0 9.7 0.00 0.10 0.10 82 1007.1
20260506174005 18 234 0.0 11.3 0.00 0.10 0.10 82 1007.1
20260506173005 18 221 0.0 4.8 0.00 0.10 0.10 83 1007.1
20260506172006 17 225 0.0 4.8 0.00 0.10 0.10 84 1007.3
20260506171005 17 229 0.0 4.8 0.00 0.10 0.10 84 1007.4
20260506170006 17 216 0.0 16.1 0.00 0.10 0.10 84 1007.4
20260506165005 17 215 0.0 4.8 0.03 0.10 0.10 85 1007.4
20260506164005 17 193 0.0 3.2 0.05 0.10 0.10 85 1007.5
20260506163006 17 234 0.0 1.6 0.05 0.10 0.10 86 1007.6
20260506162005 17 204 0.0 12.9 0.08 0.10 0.10 86 1007.8
20260506161005 17 226 0.0 4.8 0.08 0.10 0.10 86 1007.7
20260506160005 17 135 0.0 1.6 0.10 0.10 0.10 85 1008.0
20260506155005 17 160 0.0 3.2 0.08 0.08 0.08 84 1008.3
20260506153005 17 222 0.0 1.6 0.05 0.05 0.05 82 1008.6
20260506150006 18 237 0.0 3.2 0.00 0.00 0.00 75 1008.4
20260506145005 18 221 0.0 3.2 0.00 0.00 0.00 74 1008.5
20260506144005 19 156 3.2 19.3 0.00 0.00 0.00 71 1008.5
20260506143006 20 170 0.0 9.7 0.00 0.00 0.00 70 1008.5
20260506142005 20 175 0.0 16.1 0.00 0.00 0.00 69 1008.5
20260506141005 20 233 1.6 16.1 0.00 0.00 0.00 68 1008.6
20260506140006 20 250 0.0 22.5 0.00 0.00 0.00 66 1008.6
20260506135005 20 225 1.6 22.5 0.00 0.00 0.00 65 1008.4
20260506134005 20 247 1.6 20.9 0.00 0.00 0.00 65 1008.4
20260506133005 20 189 1.6 11.3 0.00 0.00 0.00 66 1008.2
20260506132005 20 179 0.0 20.9 0.00 0.00 0.00 67 1008.3
20260506130005 19 253 0.0 4.8 0.00 0.00 0.00 70 1008.5
20260506124006 19 227 1.6 9.7 0.00 0.00 0.00 70 1008.6
20260506122005 19 173 0.0 4.8 0.00 0.00 0.00 71 1008.6
20260506121006 19 213 0.0 9.7 0.00 0.00 0.00 72 1008.4
20260506120005 18 179 0.0 12.9 0.00 0.00 0.00 73 1008.4
20260506115005 18 140 0.0 4.8 0.00 0.00 0.00 73 1008.3
20260506114006 18 165 0.0 3.2 0.00 0.00 0.00 74 1008.2
20260506113005 18 178 0.0 3.2 0.00 0.00 0.00 74 1008.1
20260506112005 18 231 0.0 9.7 0.00 0.00 0.00 74 1008.2
20260506111005 18 241 0.0 4.8 0.00 0.00 0.00 75 1008.1
20260506110005 18 148 0.0 8.0 0.00 0.00 0.00 75 1008.1
20260506105005 18 200 0.0 3.2 0.00 0.00 0.00 75 1008.0
20260506104006 18 222 0.0 4.8 0.00 0.00 0.00 75 1008.1
20260506103005 18 208 0.0 0.0 0.00 0.00 0.00 76 1008.1
20260506102005 18 193 0.0 3.2 0.00 0.00 0.00 76 1008.1
20260506101005 17 209 0.0 0.0 0.00 0.00 0.00 77 1008.1
20260506095005 17 187 0.0 0.0 0.00 0.00 0.00 77 1008.0
20260506094005 17 222 0.0 12.9 0.00 0.00 0.00 77 1008.1
20260506093005 18 172 0.0 8.0 0.00 0.00 0.00 76 1008.1
20260506092005 18 166 0.0 0.0 0.00 0.00 0.00 76 1008.2
20260506091005 18 217 0.0 1.6 0.00 0.00 0.00 75 1008.1
20260506085005 18 191 0.0 8.0 0.00 0.00 0.00 74 1008.1
20260506084006 18 238 0.0 3.2 0.00 0.00 0.00 74 1008.1
20260506082005 19 220 0.0 19.3 0.00 0.00 0.00 72 1008.1
20260506081006 19 238 0.0 8.0 0.00 0.00 0.00 72 1008.1
20260506073006 19 135 0.0 4.8 0.00 0.00 0.00 72 1008.3
20260506072005 19 214 0.0 0.0 0.00 0.00 0.00 73 1008.4
20260506071005 19 280 0.0 0.0 0.00 0.00 0.00 73 1008.4
20260506062005 20 214 0.0 0.0 0.00 0.00 0.00 72 1008.6
20260506061005 20 235 0.0 4.8 0.00 0.00 0.00 71 1008.7
20260506045005 21 213 0.0 12.9 0.00 0.00 0.00 65 1009.0
20260506044005 21 191 0.0 1.6 0.00 0.00 0.00 64 1009.1
20260506043005 21 165 0.0 4.8 0.00 0.00 0.00 62 1009.1
20260506042005 21 240 0.0 8.0 0.00 0.00 0.00 61 1009.1
20260506040005 21 197 0.0 4.8 0.00 0.00 0.00 60 1009.0
20260506034005 21 136 0.0 0.0 0.00 0.00 0.00 59 1008.9
20260506032005 21 165 0.0 0.0 0.00 0.00 0.00 58 1008.9
20260506031005 21 167 0.0 3.2 0.00 0.00 0.00 58 1009.0
20260506030005 21 169 0.0 4.8 0.00 0.00 0.00 57 1009.0
20260506025005 21 178 0.0 0.0 0.00 0.00 0.00 56 1009.1
20260506024005 21 217 0.0 1.6 0.00 0.00 0.00 56 1009.2
20260506022005 22 145 0.0 4.8 0.00 0.00 0.00 55 1009.2
20260506021005 22 173 0.0 9.7 0.00 0.00 0.00 54 1009.1
20260506015005 22 133 0.0 3.2 0.00 0.00 0.00 53 1008.9
20260506013005 22 150 0.0 1.6 0.00 0.00 0.00 51 1008.7
20260506012005 22 153 0.0 1.6 0.00 0.00 0.00 50 1008.5
20260506011005 23 163 0.0 0.0 0.00 0.00 0.00 49 1008.5